Location: Christianberg
(48.9086°N, 14.0209°E)
Time: 22:02:47
(UTC+00:00)

Meteor 2-3 Rocket - Pass Details

Date: 20 June 2021
Orbit: 843 x 885 km, 81.2° (Epoch: 04 August)

Event Time Altitude Azimuth Distance (km) Brightness Sun altitude
Exits shadow 01:31:23 11° 190° (S) 2,386 5.5 -10.7°
Maximum altitude 01:36:46 89° 284° (WNW) 852 3.7 -10.2°
Drops below altitude 10° 01:42:23 10° 12° (NNE) 2,474 7.3 -9.6°
Sets 01:44:49 0° 12° (NNE) 3,414 8.2 -9.4°
